Regional Weather Roundup
Issued by NWS

Home | Current Version | Previous Version | Graphics & Text | Print | Product List | Glossary On
Versions: 1 2 3 4 5 6 7 8 9 10 11 12 13 14 15 16 17 18 19 20 21 22 23 24 25 26 27 28 29 30 31 32 33 34 35 36 37 38 39 40 41 42 43 44 45 46 47 48 49 50
000
ASUS45 KBOU 030410
RWRCO

WEATHER ROUNDUP FOR COLORADO
NATIONAL WEATHER SERVICE DENVER/BOULDER CO
1000 PM MDT THU JUL 02 2015

NOTE: "FAIR" INDICATES FEW OR NO CLOUDS BELOW 12000 FEET WITH NO
SIGNIFICANT WEATHER AND/OR OBSTRUCTIONS TO VISIBILITY.

COZ001>005-013-030-031-030500-
...NORTHWEST COLORADO...

CITY           SKY/WX    TMP DP  RH WIND       PRES   REMARKS
CRAIG          PTCLDY    75  41  29 E14       30.17R
HAYDEN         PTCLDY    73  39  29 E23G30    30.21R
MEEKER         PTCLDY    71  45  39 NE5       30.16R
MOUNT WERNER   NOT AVBL
STEAMBOAT SPGS PTCLDY    72  41  32 NE14      30.22S
WALDEN         CLOUDY    52  46  82 N15G23    30.41R
$$

COZ006>008-011-030500-
...WEST CENTRAL VALLEYS...

CITY           SKY/WX    TMP DP  RH WIND       PRES   REMARKS
GRAND JUNCTION CLEAR     82  46  28 E6        29.97R
MONTROSE       PTCLDY    79  50  36 SE10      30.09R
EAGLE          CLEAR     72  45  37 NW5       30.20R
RIFLE          CLEAR     77  41  27 S8        30.05R
DELTA          PTCLDY    81  46  29 N9        30.02S
NUCLA          PTCLDY    77  43  29 E10       30.13R
$$

COZ017>023-064>068-030500-
...SOUTHWEST COLORADO...

CITY           SKY/WX    TMP DP  RH WIND       PRES   REMARKS
DURANGO        CLOUDY    69  50  50 SE8       30.24R
CORTEZ         PTCLDY    69  58  67 NE6       30.13R
PAGOSA SPRINGS CLOUDY    63  49  61 CALM      30.32R
TELLURIDE      MOCLDY    63  50  63 CALM      30.42R
WOLF CREEK PAS NOT AVBL
$$

COZ009-010-012-014-032>034-037-058>063-030500-
...CENTRAL COLORADO...

CITY           SKY/WX    TMP DP  RH WIND       PRES   REMARKS
ASPEN          PTCLDY    62  46  55 SW10      30.28R
BUENA VISTA    MOCLDY    56  54  92 CALM      30.38R
COPPER MTN     PTCLDY    54  43  66 S13       30.64S
BERTHOUD PASS  MOCLDY    41  32  70 MISG      30.71R
COTTONWOOD PAS NOT AVBL
GUNNISON       MOCLDY    63  46  55 NW3       30.36R
KREMMLING      PTCLDY    70  41  35 E6        30.31R
LEADVILLE      PTCLDY    48  47  96 E5        30.50R
MONARCH PASS   CLOUDY    48  37  66 E10       30.74S
SALIDA         MOCLDY    61  57  87 CALM      30.42R
SUNLIGHT       PTCLDY    59  39  47 CALM      30.56R
WILKERSON PASS PTCLDY    46  41  81 CALM      30.64R
$$

COZ069>075-030500-
...SAN LUIS VALLEY/SANGRE DE CRISTO MOUNTAINS...

CITY           SKY/WX    TMP DP  RH WIND       PRES   REMARKS
ALAMOSA        CLOUDY    56  52  86 SW7       30.34R
LA VETA PASS   CLOUDY    50  45  81 MISG      30.52S
SAGUACHE       CLOUDY    55  52  88 NW9       30.37R
$$

COZ035-036-038>040-030500-
...NORTHERN COLORADO FRONT RANGE...

CITY           SKY/WX    TMP DP  RH WIND       PRES   REMARKS
DENVER INTL AP CLOUDY    61  55  81 S8        30.22R
DMNS CITY PARK   N/A     63  60  91 SW7       30.24R
AURORA         MOCLDY    60  59  96 S6        30.26R
FRONT RANGE AP NOT AVBL
ERIE MUNI ARPT MOCLDY    63  61  93 S3        30.22R
BOULDER MUN AP MOCLDY    63  61  94 SW3       30.22S
CENTENNIAL     CLOUDY    61  58  90 W6        30.27R
BROOMFIELD     MOCLDY    61  57  88 SW3       30.26R
FORT COLLINS   MOCLDY    64  57  77 S7        30.21R
LONGMONT       MOCLDY    64  60  87 CALM      30.23R
$$

COZ041-046-047-076>085-087-088-030500-
...PIKES PEAK/PALMER DIVIDE AND SOUTHERN FOOTHILLS...

CITY           SKY/WX    TMP DP  RH WIND       PRES   REMARKS
COLO. SPRINGS  MOCLDY    66  59  78 NE8       30.29R
A. F. ACADEMY  PTCLDY    63  55  77 N16       30.32R
ELLICOTT       PTCLDY   N/A N/A N/A CALM      30.26R
FALCON         RAIN      65  56  73 N9        30.36R
FORT CARSON    CLOUDY    65  58  80 N6        30.24R
LIMON          MOCLDY    66  59  78 CALM      30.21R
MONUMENT HILL  NOT AVBL
TRINIDAD       CLOUDY    67  57  70 E3        30.22R
$$

COZ042>045-048>051-090-091-030500-
...NORTHEAST COLORADO...

CITY           SKY/WX    TMP DP  RH WIND       PRES   REMARKS
GREELEY ARPT   MOCLDY    64  61  88 N5        30.20R
AKRON          MOCLDY    67  56  67 E6        30.16R
BURLINGTON     CLEAR     69  55  60 E8        30.14R
WRAY           CLEAR     72  58  60 E6        30.11R
STERLING       MOCLDY    68  55  64 E3          N/A
HOLYOKE        CLEAR     70  61  73 E3        30.11R
FORT MORGAN    MOCLDY    63  56  77 W3        30.17S
$$

COZ086-089-092>099-030500-
...SOUTHEAST COLORADO...

CITY           SKY/WX    TMP DP  RH WIND       PRES   REMARKS
PUEBLO         MOCLDY    70  59  68 N3        30.15R
LA JUNTA       PTCLDY    72  60  66 W8        30.11R
LAMAR          CLEAR     72  61  68 SE7       30.06R
SPRINGFIELD      N/A     70  64  81 E10       30.13R
$$



USA.gov is the U.S. government's official web portal to all federal, state and local government web resources and services.